sat.trackr.live / text

‹ back to catalog

STARLINK-3354

NORAD 51146 · 2022-005AU

PAYLOAD ACTIVE UNKNOWN

§ Identity

Operator
Country
US
Launch date
2022-01-19
Launch site
AFETR
Launch vehicle
Mass (kg)
RCS (m²)

Purposes: comms

External: N2YO · Heavens-Above · Gunter

§ Orbital elements

Epoch: 2026-05-24T21:21:25.958592Z

Period
95.44 min
Inclination
53.2136°
Eccentricity
0.0001787
Mean motion
15.08839436 rev/d
Perigee alt
538.5 km
Apogee alt
541.0 km
Semi-major
6,917.9 km
B*
9.5535e-5
RAAN
317.0529°
Arg perigee
95.4283°
Mean anomaly
264.6913°
Rev number
24,023

§ Raw data

STARLINK-33541 51146U 22005AU  26144.88988378  .00001233  00000+0  95535-4 0  99912 51146  53.2136 317.0529 0001787  95.4283 264.6913 15.08839436240239

JSON: /api/v1/satellites/51146 · /tle

For live sub-satellite position, see the globe view (requires WebGL).

§ Visibility from observer

Set your observer location to see the next 7 days of passes ≥ 10°. The values pass through the URL so the page stays shareable.

No JS? Fill the form by hand. The geolocation button needs JavaScript.